N3SBK Weather Reports


time (UTC)temp
C
wind
direction
speed
KPH
gust
KPH
rain 1hr
cm
rain 24hr
cm
rain mn
cm
humidity
%
barometer
mb
20260504045420 7 85 0.0 0.0 0.00 0.00 0.00 57 1005.1
20260504044916 7 85 0.0 0.0 0.00 0.00 0.00 58 1005.3
20260504044414 6 86 0.0 0.0 0.00 0.00 0.00 58 1005.2
20260504043911 7 88 0.0 0.0 0.00 0.00 0.00 58 1005.0
20260504043408 6 131 0.0 0.0 0.00 0.00 0.00 59 1005.0
20260504042905 6 88 0.0 0.0 0.00 0.00 0.00 58 1005.1
20260504042402 6 91 0.0 0.0 0.00 0.00 0.00 59 1005.0
20260504041858 6 91 0.0 0.0 0.00 0.00 0.00 60 1005.3
20260504041354 6 83 0.0 0.0 0.00 0.00 0.00 59 1004.8
20260504040850 6 91 0.0 0.0 0.00 0.00 0.00 59 1005.0
20260504040348 6 91 0.0 0.0 0.00 0.00 0.00 59 1005.1
20260504035843 6 96 0.0 0.0 0.00 0.00 0.00 59 1005.2
20260504035342 6 87 0.0 0.0 0.00 0.00 0.00 59 1005.3
20260504034838 6 92 0.0 0.0 0.00 0.00 0.00 59 1005.1
20260504034336 6 82 0.0 0.0 0.00 0.00 0.00 59 1005.2
20260504033832 6 89 0.0 0.0 0.00 0.00 0.00 59 1005.3
20260504033331 6 87 0.0 0.0 0.00 0.00 0.00 58 1005.4
20260504032827 6 93 0.0 1.6 0.00 0.00 0.00 58 1005.3
20260504032324 6 89 0.0 0.0 0.00 0.00 0.00 59 1005.3
20260504031821 6 87 0.0 0.0 0.00 0.00 0.00 59 1005.3
20260504031318 6 92 0.0 0.0 0.00 0.00 0.00 60 1005.2
20260504030814 6 88 0.0 0.0 0.00 0.00 0.00 60 1005.3
20260504030312 6 95 1.6 1.6 0.00 0.00 0.00 59 1005.4
20260504025808 6 83 0.0 0.0 0.00 0.00 0.00 60 1005.5
20260504025305 6 94 0.0 0.0 0.00 0.00 0.00 61 1005.3
20260504024801 6 91 0.0 0.0 0.00 0.00 0.00 60 1005.3
20260504024258 6 88 0.0 0.0 0.00 0.00 0.00 61 1005.4
20260504023755 6 91 0.0 0.0 0.00 0.00 0.00 60 1005.5
20260504023251 6 97 0.0 0.0 0.00 0.00 0.00 62 1005.6
20260504022747 6 87 0.0 0.0 0.00 0.00 0.00 62 1005.4
20260504022244 7 80 0.0 0.0 0.00 0.00 0.00 60 1005.5
20260504021741 6 82 0.0 0.0 0.00 0.00 0.00 60 1005.4
20260504021238 7 89 0.0 0.0 0.00 0.00 0.00 62 1005.3
20260504020735 7 88 0.0 0.0 0.00 0.00 0.00 60 1005.4
20260504020231 7 84 0.0 0.0 0.00 0.00 0.00 59 1005.4
20260504015728 7 86 0.0 0.0 0.00 0.00 0.00 59 1005.3
20260504015224 7 83 0.0 0.0 0.00 0.00 0.00 60 1005.3
20260504014720 7 90 0.0 0.0 0.00 0.00 0.00 61 1005.4
20260504014217 7 83 0.0 0.0 0.00 0.00 0.00 62 1005.4
20260504013715 7 91 0.0 0.0 0.00 0.00 0.00 60 1005.3
20260504013212 7 84 0.0 0.0 0.00 0.00 0.00 59 1005.2
20260504012708 7 95 0.0 0.0 0.00 0.00 0.00 58 1005.2
20260504012206 7 88 0.0 0.0 0.00 0.00 0.00 57 1005.3
20260504011703 8 87 0.0 0.0 0.00 0.00 0.00 56 1005.2
20260504011159 8 94 0.0 0.0 0.00 0.00 0.00 57 1005.1
20260504010655 8 93 0.0 0.0 0.00 0.00 0.00 56 1005.2
20260504010151 8 99 0.0 0.0 0.00 0.00 0.00 56 1005.2
20260504005648 8 93 0.0 0.0 0.00 0.00 0.00 56 1005.1
20260504005145 8 82 0.0 0.0 0.00 0.00 0.00 55 1005.3
20260504004643 9 87 0.0 0.0 0.00 0.00 0.00 56 1005.1
20260504004140 9 90 0.0 0.0 0.00 0.00 0.00 55 1005.1
20260504003636 10 102 0.0 0.0 0.00 0.00 0.00 53 1005.1
20260504003133 10 123 0.0 0.0 0.00 0.00 0.00 50 1005.0
20260504002630 10 124 0.0 0.0 0.00 0.00 0.00 48 1005.0
20260504002127 10 187 0.0 0.0 0.00 0.00 0.00 46 1005.0
20260504001625 10 188 0.0 0.0 0.00 0.00 0.00 47 1005.1
20260504001121 11 189 0.0 0.0 0.00 0.00 0.00 47 1005.1
20260504000619 11 260 0.0 0.0 0.00 0.00 0.00 44 1005.0
20260504000116 11 303 1.6 1.6 0.00 0.00 0.00 44 1005.0
20260503235614 11 285 3.2 3.2 0.00 0.00 0.00 44 1005.1
20260503235110 11 224 0.0 1.6 0.00 0.00 0.00 43 1004.8
20260503234608 11 270 3.2 3.2 0.00 0.00 0.00 42 1004.8
20260503234106 11 278 1.6 3.2 0.00 0.00 0.00 42 1005.0
20260503233603 11 263 3.2 4.8 0.00 0.00 0.00 41 1005.0
20260503233058 12 291 3.2 4.8 0.00 0.00 0.00 40 1005.0
20260503232555 12 247 1.6 3.2 0.00 0.00 0.00 41 1005.0
20260503232053 12 230 1.6 4.8 0.00 0.00 0.00 41 1005.1
20260503231551 12 248 3.2 4.8 0.00 0.00 0.00 39 1005.1
20260503231047 12 256 4.8 4.8 0.00 0.00 0.00 39 1005.0
20260503230544 13 281 3.2 6.4 0.00 0.00 0.00 39 1005.1
20260503230041 12 243 3.2 6.4 0.00 0.00 0.00 39 1005.1
20260503225538 12 308 3.2 4.8 0.00 0.00 0.00 40 1005.3
20260503225033 12 259 3.2 4.8 0.00 0.00 0.00 42 1005.0
20260503224531 12 240 1.6 3.2 0.00 0.00 0.00 40 1005.1
20260503224028 12 294 1.6 4.8 0.00 0.00 0.00 41 1005.1
20260503223526 13 272 4.8 4.8 0.00 0.00 0.00 39 1005.2
20260503223021 13 173 1.6 6.4 0.00 0.00 0.00 37 1005.3
20260503222520 13 252 4.8 4.8 0.00 0.00 0.00 38 1005.3
20260503222018 13 243 3.2 3.2 0.00 0.00 0.00 38 1005.1
20260503221516 13 259 3.2 6.4 0.00 0.00 0.00 38 1005.1
20260503221013 13 263 6.4 6.4 0.00 0.00 0.00 37 1005.1
20260503220509 13 237 4.8 6.4 0.00 0.00 0.00 37 1005.1
20260503220006 13 355 3.2 6.4 0.00 0.00 0.00 36 1005.3
20260503215503 14 268 3.2 6.4 0.00 0.00 0.00 36 1005.2
20260503215000 14 279 1.6 4.8 0.00 0.00 0.00 35 1005.0
20260503214458 13 244 3.2 6.4 0.00 0.00 0.00 36 1005.0
20260503213955 13 222 3.2 6.4 0.00 0.00 0.00 37 1005.0
20260503213453 13 325 1.6 4.8 0.00 0.00 0.00 37 1005.1
20260503212949 13 259 3.2 6.4 0.00 0.00 0.00 37 1005.2
20260503212446 13 352 1.6 6.4 0.00 0.00 0.00 36 1005.2
20260503211944 14 264 6.4 6.4 0.00 0.00 0.00 37 1005.0
20260503211441 13 260 3.2 6.4 0.00 0.00 0.00 37 1005.0
20260503210936 13 275 3.2 4.8 0.00 0.00 0.00 37 1005.4
20260503210433 12 235 1.6 4.8 0.00 0.00 0.00 41 1005.1
20260503205928 13 197 3.2 4.8 0.00 0.00 0.00 38 1005.2
20260503205425 13 273 3.2 6.4 0.00 0.00 0.00 40 1005.4
20260503204921 12 256 4.8 6.4 0.00 0.00 0.00 40 1005.2
20260503204419 12 265 3.2 3.2 0.00 0.00 0.00 40 1005.3
20260503203916 13 250 1.6 6.4 0.00 0.00 0.00 39 1005.5
20260503203413 12 266 1.6 4.8 0.00 0.00 0.00 39 1005.5
20260503202910 13 268 3.2 4.8 0.00 0.00 0.00 38 1005.5
20260503202408 13 262 1.6 6.4 0.00 0.00 0.00 42 1005.4
20260503201906 13 215 4.8 6.4 0.00 0.00 0.00 38 1005.6
20260503201403 13 278 4.8 9.7 0.00 0.00 0.00 38 1005.7
20260503200900 13 331 3.2 4.8 0.00 0.00 0.00 40 1005.7
20260503200356 13 310 4.8 9.7 0.00 0.00 0.00 37 1005.7
20260503195854 14 211 1.6 6.4 0.00 0.00 0.00 35 1005.7
20260503195350 13 264 6.4 9.7 0.00 0.00 0.00 37 1005.7
20260503194847 13 268 4.8 14.5 0.00 0.00 0.00 36 1005.9
20260503194343 14 293 3.2 12.9 0.00 0.00 0.00 36 1005.7
20260503193840 13 275 3.2 6.4 0.00 0.00 0.00 37 1005.9
20260503193335 13 2 6.4 9.7 0.00 0.00 0.00 37 1005.8
20260503192831 13 303 3.2 4.8 0.00 0.00 0.00 38 1006.2
20260503192327 13 307 6.4 9.7 0.00 0.00 0.00 36 1006.2
20260503191823 13 289 6.4 11.3 0.00 0.00 0.00 37 1006.3
20260503191321 13 274 4.8 6.4 0.00 0.00 0.00 36 1006.4
20260503190817 13 267 3.2 4.8 0.00 0.00 0.00 37 1006.3
20260503190315 14 249 4.8 6.4 0.00 0.00 0.00 36 1006.5
20260503185812 13 244 3.2 9.7 0.00 0.00 0.00 36 1006.1
20260503185308 13 274 6.4 6.4 0.00 0.00 0.00 38 1006.5
20260503184807 12 251 4.8 4.8 0.00 0.00 0.00 39 1006.5
20260503184304 13 252 6.4 9.7 0.00 0.00 0.00 37 1006.6
20260503183800 13 359 1.6 6.4 0.00 0.00 0.00 38 1006.5
20260503183258 12 345 4.8 6.4 0.00 0.00 0.00 37 1006.6
20260503182755 13 271 4.8 11.3 0.00 0.00 0.00 36 1006.6
20260503182254 13 239 1.6 12.9 0.00 0.00 0.00 42 1006.7
20260503181750 13 266 1.6 12.9 0.00 0.00 0.00 36 1006.8
20260503181247 13 345 4.8 6.4 0.00 0.00 0.00 37 1006.7
20260503180743 13 250 6.4 6.4 0.00 0.00 0.00 36 1007.0
20260503180242 13 348 4.8 6.4 0.00 0.00 0.00 39 1006.8
20260503175738 13 252 3.2 6.4 0.00 0.00 0.00 41 1006.7
20260503175236 13 264 3.2 6.4 0.00 0.00 0.00 39 1006.9
20260503174732 13 332 3.2 9.7 0.00 0.00 0.00 39 1007.0
20260503174231 12 61 6.4 9.7 0.00 0.00 0.00 37 1006.9
20260503173730 12 76 4.8 6.4 0.00 0.00 0.00 37 1007.0
20260503173226 12 260 3.2 11.3 0.00 0.00 0.00 44 1006.9
20260503172724 12 255 4.8 6.4 0.00 0.00 0.00 40 1007.0
20260503172221 12 325 1.6 4.8 0.00 0.00 0.00 41 1007.1
20260503171717 11 243 6.4 9.7 0.00 0.00 0.00 41 1007.3
20260503171214 11 273 4.8 6.4 0.00 0.00 0.00 41 1007.2
20260503170711 11 272 6.4 11.3 0.00 0.00 0.00 39 1007.3
20260503170208 11 254 4.8 6.4 0.00 0.00 0.00 42 1007.4
20260503160130 9 242 6.4 11.3 0.00 0.00 0.00 46 1008.0
20260503150600 8 262 1.6 4.8 0.00 0.00 0.00 48 1008.3
20260503130949 5 353 0.0 6.4 0.00 0.00 0.00 67 1008.2
20260503130447 4 304 3.2 4.8 0.00 0.00 0.00 71 1008.3
20260503110344 0 82 0.0 0.0 0.00 0.00 0.00 92 1007.5
20260503090235 0 86 0.0 0.0 0.00 0.00 0.00 91 1006.7
20260503081202 0 80 0.0 0.0 0.00 0.00 0.00 89 1006.7
20260503080658 0 80 0.0 0.0 0.00 0.00 0.00 89 1006.5
20260503080155 0 80 0.0 0.0 0.00 0.00 0.00 89 1006.6
20260503072632 0 81 0.0 0.0 0.00 0.00 0.00 90 1006.2
20260503072128 0 81 0.0 0.0 0.00 0.00 0.00 90 1006.2
20260503071625 0 81 0.0 0.0 0.00 0.00 0.00 89 1006.3
20260503071122 0 85 0.0 0.0 0.00 0.00 0.00 89 1006.4
20260503070619 0 85 0.0 0.0 0.00 0.00 0.00 89 1006.1
20260503070117 0 73 0.0 0.0 0.00 0.00 0.00 87 1006.2
20260503055038 1 334 0.0 0.0 0.00 0.00 0.00 82 1006.3
20260503054533 1 333 0.0 0.0 0.00 0.00 0.00 82 1006.3
20260503054031 1 318 0.0 0.0 0.00 0.00 0.00 82 1006.3
20260503053529 1 301 0.0 0.0 0.00 0.00 0.00 81 1006.2
20260503053026 1 303 0.0 0.0 0.00 0.00 0.00 80 1006.2
20260503052523 1 301 0.0 0.0 0.00 0.00 0.00 80 1006.5
20260503052019 2 306 0.0 0.0 0.00 0.00 0.00 81 1006.5
20260503051515 2 310 0.0 0.0 0.00 0.00 0.00 80 1006.5
20260503051013 2 310 0.0 0.0 0.00 0.00 0.00 78 1006.3
20260503050508 2 318 0.0 0.0 0.00 0.00 0.00 78 1006.5
20260503050006 2 344 0.0 0.0 0.00 0.00 0.00 78 1006.4